Tracking 18852 objects as of 23-Nov-2017
HD Live streaming from Space Station
objects crossing your sky now

FENGYUN 1C DEB

Track FENGYUN 1C DEB now!
10-day predictions


NORAD ID: 37014
Int'l Code: 1999-025ECW
Perigee: 812.6 km
Apogee: 862.3 km
Inclination: 99.0 °
Period: 101.5 minutes
Semi major axis: 7208 km
RCS: 0.0043 m2 (small)
Launch date: May 10, 1999
Source: People's Republic of China (PRC)
Launch site: Taiyaun Space Center, China (TSC)

Note: This is SATELLITE DEBRIS
aabbcc
Your satellite tracking list
Your tracking list is empty




NASA's NSSDC Master Catalog

Two Line Element Set (TLE):
1 37014U 99025ECW 17327.00649242  .00001664  00000-0  82181-3 0  9997
2 37014  99.0191 344.1414 0034418 188.1893 171.8724 14.18533778410759
Source of the keplerian elements: AFSPC